{"data":{"norad_id":53706,"epoch":"2026-05-24T14:31:21.836640Z","epoch_age_seconds":99266,"freshness":"FRESH","line1":"1 53706U 22107G   26144.60511385 -.00000310  00000+0 -13942-5 0  9998","line2":"2 53706  53.2162 263.3845 0001330  89.3800 270.7345 15.08838825206316","mean_motion":15.08838825,"eccentricity":0.000133,"inclination_deg":53.2162,"raan_deg":263.3845,"arg_perigee_deg":89.38,"mean_anomaly_deg":270.7345,"bstar":-1.3942e-6,"rev_number":20631,"period_min":95.437628999241,"perigee_km":538.82690190197,"apogee_km":540.66705904077,"semimajor_km":6917.8839804714,"source":"CELESTRAK","updated_at":"2026-05-25T13:38:17.532733Z"}}